BEIDOU IGSO 6

Last updated on Tue Apr 02 2019 04:15:24 GMT+0100 (British Summer Time)

1 41434U 16021A 19091.90350080 -.00000115 00000-0 00000+0 0 9998 2 41434 56.4288 65.2649 0033508 202.3572 343.4982 1.00265041 11085
UTC large
Height (km)
Speed (km/s)
/
Latitude / Longitude
Inclination (degrees)
Orbital Period (minutes)
Azimuth
Elevation
Range (km)
Doppler Factor

Next 0 passes for location: London (51.5072 / 0.1276)

Sorry there are no passes over London.